sat.trackr.live / text

‹ back to catalog

STARLINK-32789

NORAD 62529 · 2025-004U

PAYLOAD ACTIVE UNKNOWN

§ Identity

Operator
Country
US
Launch date
2025-01-08
Launch site
AFETR
Launch vehicle
Mass (kg)
RCS (m²)

Purposes: comms

External: N2YO · Heavens-Above · Gunter

§ Orbital elements

Epoch: 2026-09-21T11:57:02.554272Z

Period
94.27 min
Inclination
42.9994°
Eccentricity
0.0001849
Mean motion
15.27596044 rev/d
Perigee alt
481.7 km
Apogee alt
484.3 km
Semi-major
6,861.1 km
B*
6.6827e-4
RAAN
194.1545°
Arg perigee
269.0630°
Mean anomaly
91.0010°
Rev number
9,640

§ Raw data

STARLINK-327891 62529U 25004U   26264.49794623  .00018182  00000+0  66827-3 0  99902 62529  42.9994 194.1545 0001849 269.0630  91.0010 15.27596044 96403

JSON: /api/v1/satellites/62529 · /tle

For live sub-satellite position, see the globe view (requires WebGL).

§ Visibility from observer

Set your observer location to see the next 7 days of passes ≥ 10°. The values pass through the URL so the page stays shareable.

No JS? Fill the form by hand. The geolocation button needs JavaScript.